Location: Bittelbronn
(48.4454°N, 8.5870°E)
Time: 20:18:21
(UTC+00:00)

Cosmos 1825 - Pass Details

Date: 23 May 2024
Orbit: 439 x 443 km, 82.5° (Epoch: 16 June)

Event Time Altitude Azimuth Distance (km) Brightness Sun altitude
Exits shadow 02:34:17 - 178° (S) 2,070 4.8 -8.7°
Reaches altitude 10° 02:35:30 10° 176° (S) 1,562 4.3 -8.6°
Maximum altitude 02:38:51 59° 96° (E) 520 2.4 -8.2°
Drops below altitude 10° 02:42:14 10° 17° (NNE) 1,581 5.7 -7.8°
Sets 02:44:20 0° 13° (NNE) 2,460 6.7 -7.5°
